User: anonymous   Login
Location: The Saddle
(36.8333°N, 80.3417°W)
Time: 17:18:51
(UTC-04:00)
Language:

BUGSAT 1 - Orbit

View from above orbital plane
View from above orbital plane
View from above satellite
View from above satellite

Ground track
Ground track

The orbit data is extracted from the following two-line orbital elements,

1 40014U 14033E   23090.26837460  .00006953  00000-0  57692-3 0  9995
2 40014  98.1463 105.7631 0030211 162.6395 197.5867 14.98775746479061
Epoch (UTC): 31 March 2023 06:26:27
Eccentricity: 0.0030211
inclination: 98.1463°
perigee height: 549 km
apogee height: 591 km
right ascension of ascending node: 105.7631°
argument of perigee: 162.6395°
revolutions per day: 14.98775746
mean anomaly at epoch: 197.5867°
orbit number at epoch: 47906

The dashed part of the orbit path shows where the satellite is in the earth's shadow,  

DLR